| time (UTC) | temp F | wind direction | speed MPH | gust MPH | rain 1hr in | rain 24hr in | rain mn in | humidity % | barometer mb |
| 20260905230609 | 73 | 94 | 2.0 | 2.0 | 0.00 | 0.00 | 0.00 | 99 | 1026.8 |
| 20260905230107 | 73 | 12 | 10.0 | 13.0 | 0.00 | 0.00 | 0.00 | 99 | 1026.3 |
| 20260905225601 | 73 | 12 | 10.0 | 13.0 | 0.00 | 0.00 | 0.00 | 99 | 1026.3 |
| 20260905225056 | 73 | 346 | 11.0 | 14.0 | 0.00 | 0.00 | 0.00 | 99 | 1026.3 |
| 20260905224555 | 73 | 346 | 11.0 | 14.0 | 0.00 | 0.00 | 0.00 | 99 | 1026.3 |
| 20260905224054 | 73 | 14 | 17.0 | 21.0 | 0.00 | 0.00 | 0.00 | 99 | 1026.1 |
| 20260905223552 | 73 | 14 | 17.0 | 21.0 | 0.00 | 0.00 | 0.00 | 99 | 1026.1 |
| 20260905223049 | 78 | 89 | 14.0 | 17.0 | 0.00 | 0.00 | 0.00 | 99 | 1026.0 |
| 20260905222548 | 78 | 89 | 14.0 | 17.0 | 0.00 | 0.00 | 0.00 | 99 | 1026.0 |
| 20260905222043 | 78 | 343 | 6.0 | 9.0 | 0.00 | 0.00 | 0.00 | 99 | 1025.7 |
| 20260905221540 | 78 | 343 | 6.0 | 9.0 | 0.00 | 0.00 | 0.00 | 99 | 1025.7 |
| 20260905221035 | 78 | 300 | 10.0 | 13.0 | 0.00 | 0.00 | 0.00 | 99 | 1025.3 |
| 20260905220531 | 78 | 300 | 10.0 | 13.0 | 0.00 | 0.00 | 0.00 | 99 | 1025.3 |
| 20260905220027 | 79 | 301 | 3.0 | 3.0 | 0.00 | 0.00 | 0.00 | 99 | 1025.8 |
| 20260905215526 | 79 | 301 | 3.0 | 3.0 | 0.00 | 0.00 | 0.00 | 99 | 1025.8 |
| 20260905215023 | 80 | 206 | 3.0 | 3.0 | 0.00 | 0.00 | 0.00 | 99 | 1026.0 |
| 20260905214518 | 80 | 206 | 3.0 | 3.0 | 0.00 | 0.00 | 0.00 | 99 | 1026.0 |
| 20260905214013 | 81 | 262 | 8.0 | 9.0 | 0.00 | 0.00 | 0.00 | 99 | 1026.1 |
| 20260905213509 | 81 | 262 | 8.0 | 9.0 | 0.00 | 0.00 | 0.00 | 99 | 1026.1 |
| 20260905213004 | 82 | 301 | 4.0 | 4.0 | 0.00 | 0.00 | 0.00 | 99 | 1026.3 |
| 20260905212459 | 82 | 301 | 4.0 | 4.0 | 0.00 | 0.00 | 0.00 | 99 | 1026.3 |
| 20260905211958 | 80 | 214 | 2.0 | 2.0 | 0.00 | 0.00 | 0.00 | 99 | 1026.2 |
| 20260905211454 | 80 | 214 | 2.0 | 2.0 | 0.00 | 0.00 | 0.00 | 99 | 1026.2 |
| 20260905210950 | 79 | 359 | 6.0 | 7.0 | 0.00 | 0.00 | 0.00 | 99 | 1026.2 |
| 20260905210445 | 79 | 359 | 6.0 | 7.0 | 0.00 | 0.00 | 0.00 | 99 | 1026.2 |
| 20260905205944 | 79 | 271 | 8.0 | 11.0 | 0.00 | 0.00 | 0.00 | 99 | 1026.6 |
| 20260905205439 | 79 | 271 | 8.0 | 11.0 | 0.00 | 0.00 | 0.00 | 99 | 1026.6 |
| 20260905204938 | 81 | 308 | 5.0 | 8.0 | 0.00 | 0.00 | 0.00 | 99 | 1026.7 |
| 20260905204434 | 81 | 308 | 5.0 | 8.0 | 0.00 | 0.00 | 0.00 | 99 | 1026.7 |
| 20260905203933 | 81 | 279 | 4.0 | 6.0 | 0.00 | 0.00 | 0.00 | 99 | 1026.7 |
| 20260905203429 | 81 | 279 | 4.0 | 6.0 | 0.00 | 0.00 | 0.00 | 99 | 1026.7 |
| 20260905202924 | 79 | 255 | 4.0 | 6.0 | 0.00 | 0.00 | 0.00 | 99 | 1026.7 |
| 20260905202419 | 79 | 255 | 4.0 | 6.0 | 0.00 | 0.00 | 0.00 | 99 | 1026.7 |
| 20260905201915 | 78 | 14 | 4.0 | 4.0 | 0.00 | 0.00 | 0.00 | 99 | 1026.7 |
| 20260905201409 | 78 | 14 | 4.0 | 4.0 | 0.00 | 0.00 | 0.00 | 99 | 1026.7 |
| 20260905200904 | 78 | 306 | 7.0 | 8.0 | 0.00 | 0.00 | 0.00 | 99 | 1026.6 |
| 20260905200400 | 78 | 306 | 7.0 | 8.0 | 0.00 | 0.00 | 0.00 | 99 | 1026.6 |
| 20260905195857 | 78 | 352 | 6.0 | 8.0 | 0.00 | 0.00 | 0.00 | 99 | 1027.1 |
| 20260905195353 | 78 | 352 | 6.0 | 8.0 | 0.00 | 0.00 | 0.00 | 99 | 1027.1 |
| 20260905194849 | 78 | 344 | 8.0 | 9.0 | 0.00 | 0.00 | 0.00 | 99 | 1026.8 |
| 20260905194348 | 78 | 344 | 8.0 | 9.0 | 0.00 | 0.00 | 0.00 | 99 | 1026.8 |
| 20260905193847 | 77 | 0 | 6.0 | 8.0 | 0.00 | 0.00 | 0.00 | 99 | 1026.8 |
| 20260905193342 | 77 | 0 | 6.0 | 8.0 | 0.00 | 0.00 | 0.00 | 99 | 1026.8 |
| 20260905192838 | 78 | 320 | 10.0 | 11.0 | 0.00 | 0.00 | 0.00 | 99 | 1026.8 |
| 20260905192333 | 78 | 320 | 10.0 | 11.0 | 0.00 | 0.00 | 0.00 | 99 | 1026.8 |
| 20260905191833 | 79 | 333 | 6.0 | 7.0 | 0.00 | 0.00 | 0.00 | 99 | 1026.8 |
| 20260905191332 | 79 | 333 | 6.0 | 7.0 | 0.00 | 0.00 | 0.00 | 99 | 1026.8 |
| 20260905190831 | 80 | 138 | 1.0 | 1.0 | 0.00 | 0.00 | 0.00 | 99 | 1026.8 |
| 20260905190325 | 80 | 138 | 1.0 | 1.0 | 0.00 | 0.00 | 0.00 | 99 | 1026.8 |
| 20260905185823 | 78 | 121 | 1.0 | 2.0 | 0.00 | 0.00 | 0.00 | 99 | 1027.0 |
| 20260905185319 | 78 | 121 | 1.0 | 2.0 | 0.00 | 0.00 | 0.00 | 99 | 1027.0 |
| 20260905184812 | 80 | 73 | 1.0 | 2.0 | 0.00 | 0.00 | 0.00 | 99 | 1027.1 |
| 20260905184311 | 80 | 73 | 1.0 | 2.0 | 0.00 | 0.00 | 0.00 | 99 | 1027.1 |
| 20260905183810 | 79 | 264 | 5.0 | 6.0 | 0.00 | 0.00 | 0.00 | 99 | 1027.1 |
| 20260905183306 | 79 | 264 | 5.0 | 6.0 | 0.00 | 0.00 | 0.00 | 99 | 1027.1 |
| 20260905182800 | 78 | 272 | 9.0 | 9.0 | 0.00 | 0.00 | 0.00 | 99 | 1027.2 |
| 20260905182300 | 78 | 272 | 9.0 | 9.0 | 0.00 | 0.00 | 0.00 | 99 | 1027.2 |
| 20260905181755 | 78 | 287 | 6.0 | 7.0 | 0.00 | 0.00 | 0.00 | 99 | 1027.3 |
| 20260905181254 | 78 | 287 | 6.0 | 7.0 | 0.00 | 0.00 | 0.00 | 99 | 1027.3 |
| 20260905180749 | 78 | 321 | 6.0 | 10.0 | 0.00 | 0.00 | 0.00 | 99 | 1027.1 |
| 20260905180244 | 78 | 321 | 6.0 | 10.0 | 0.00 | 0.00 | 0.00 | 99 | 1027.1 |
| 20260905175738 | 79 | 40 | 3.0 | 4.0 | 0.00 | 0.00 | 0.00 | 99 | 1027.6 |
| 20260905175233 | 79 | 40 | 3.0 | 4.0 | 0.00 | 0.00 | 0.00 | 99 | 1027.6 |
| 20260905174728 | 78 | 265 | 4.0 | 4.0 | 0.00 | 0.00 | 0.00 | 99 | 1027.8 |
| 20260905174224 | 78 | 265 | 4.0 | 4.0 | 0.00 | 0.00 | 0.00 | 99 | 1027.8 |
| 20260905173720 | 78 | 261 | 7.0 | 8.0 | 0.00 | 0.00 | 0.00 | 99 | 1027.6 |
| 20260905173215 | 78 | 261 | 7.0 | 8.0 | 0.00 | 0.00 | 0.00 | 99 | 1027.6 |
| 20260905172709 | 79 | 79 | 2.0 | 3.0 | 0.00 | 0.00 | 0.00 | 99 | 1027.5 |
| 20260905172203 | 79 | 79 | 2.0 | 3.0 | 0.00 | 0.00 | 0.00 | 99 | 1027.5 |
| 20260905171659 | 82 | 84 | 4.0 | 6.0 | 0.00 | 0.00 | 0.00 | 99 | 1027.3 |
| 20260905171155 | 82 | 84 | 4.0 | 6.0 | 0.00 | 0.00 | 0.00 | 99 | 1027.3 |
| 20260905170652 | 80 | 91 | 2.0 | 3.0 | 0.00 | 0.00 | 0.00 | 99 | 1027.2 |
| 20260905170147 | 80 | 91 | 2.0 | 3.0 | 0.00 | 0.00 | 0.00 | 99 | 1027.2 |
| 20260905165646 | 79 | 140 | 3.0 | 4.0 | 0.00 | 0.00 | 0.00 | 99 | 1027.3 |
| 20260905165142 | 79 | 140 | 3.0 | 4.0 | 0.00 | 0.00 | 0.00 | 99 | 1027.3 |
| 20260905164637 | 77 | 142 | 6.0 | 6.0 | 0.00 | 0.00 | 0.00 | 99 | 1027.1 |
| 20260905164136 | 77 | 142 | 6.0 | 6.0 | 0.00 | 0.00 | 0.00 | 99 | 1027.1 |
| 20260905163632 | 77 | 93 | 3.0 | 3.0 | 0.00 | 0.00 | 0.00 | 99 | 1027.0 |
| 20260905163128 | 77 | 93 | 3.0 | 3.0 | 0.00 | 0.00 | 0.00 | 99 | 1027.0 |
| 20260905162624 | 77 | 73 | 6.0 | 8.0 | 0.00 | 0.00 | 0.00 | 99 | 1027.1 |
| 20260905162123 | 77 | 73 | 6.0 | 8.0 | 0.00 | 0.00 | 0.00 | 99 | 1027.1 |
| 20260905161623 | 77 | 102 | 8.0 | 9.0 | 0.00 | 0.00 | 0.00 | 99 | 1027.0 |
| 20260905161121 | 77 | 102 | 8.0 | 9.0 | 0.00 | 0.00 | 0.00 | 99 | 1027.0 |
| 20260905160621 | 76 | 116 | 9.0 | 10.0 | 0.00 | 0.00 | 0.00 | 99 | 1027.0 |
| 20260905160115 | 76 | 116 | 9.0 | 10.0 | 0.00 | 0.00 | 0.00 | 99 | 1027.0 |
| 20260905155609 | 75 | 143 | 11.0 | 13.0 | 0.00 | 0.00 | 0.00 | 99 | 1026.8 |
| 20260905155108 | 75 | 143 | 11.0 | 13.0 | 0.00 | 0.00 | 0.00 | 99 | 1026.8 |
| 20260905154608 | 75 | 149 | 7.0 | 8.0 | 0.00 | 0.00 | 0.00 | 99 | 1027.0 |
| 20260905154104 | 75 | 149 | 7.0 | 8.0 | 0.00 | 0.00 | 0.00 | 99 | 1027.0 |
| 20260905153600 | 74 | 139 | 11.0 | 13.0 | 0.00 | 0.00 | 0.00 | 99 | 1026.8 |
| 20260905153100 | 74 | 139 | 11.0 | 13.0 | 0.00 | 0.00 | 0.00 | 99 | 1026.8 |
| 20260905152554 | 73 | 112 | 13.0 | 15.0 | 0.00 | 0.00 | 0.00 | 99 | 1027.0 |
| 20260905152050 | 73 | 112 | 13.0 | 15.0 | 0.00 | 0.00 | 0.00 | 99 | 1027.0 |
| 20260905151545 | 73 | 107 | 12.0 | 14.0 | 0.00 | 0.00 | 0.00 | 99 | 1026.8 |
| 20260905151040 | 72 | 69 | 9.0 | 11.0 | 0.00 | 0.00 | 0.00 | 99 | 1026.8 |
| 20260905150535 | 72 | 69 | 9.0 | 11.0 | 0.00 | 0.00 | 0.00 | 99 | 1026.8 |
| 20260905150034 | 71 | 105 | 13.0 | 14.0 | 0.00 | 0.00 | 0.00 | 99 | 1026.6 |
| 20260905145532 | 71 | 105 | 13.0 | 14.0 | 0.00 | 0.00 | 0.00 | 99 | 1026.6 |
| 20260905145032 | 71 | 77 | 10.0 | 13.0 | 0.00 | 0.00 | 0.00 | 99 | 1026.8 |
| 20260905144527 | 71 | 77 | 10.0 | 13.0 | 0.00 | 0.00 | 0.00 | 99 | 1026.8 |
| 20260905144026 | 70 | 114 | 12.0 | 14.0 | 0.00 | 0.00 | 0.00 | 99 | 1026.8 |
| 20260905143525 | 70 | 114 | 12.0 | 14.0 | 0.00 | 0.00 | 0.00 | 99 | 1026.8 |
| 20260905143021 | 69 | 112 | 13.0 | 16.0 | 0.00 | 0.00 | 0.00 | 99 | 1026.6 |
| 20260905142519 | 69 | 112 | 13.0 | 16.0 | 0.00 | 0.00 | 0.00 | 99 | 1026.6 |
| 20260905142015 | 68 | 125 | 10.0 | 11.0 | 0.00 | 0.00 | 0.00 | 99 | 1026.7 |
| 20260905141509 | 68 | 125 | 10.0 | 11.0 | 0.00 | 0.00 | 0.00 | 99 | 1026.7 |
| 20260905141006 | 67 | 132 | 10.0 | 10.0 | 0.00 | 0.00 | 0.00 | 99 | 1026.7 |
| 20260905140500 | 67 | 132 | 10.0 | 10.0 | 0.00 | 0.00 | 0.00 | 99 | 1026.7 |
| 20260905135958 | 67 | 89 | 9.0 | 9.0 | 0.00 | 0.00 | 0.00 | 99 | 1026.6 |
| 20260905135455 | 67 | 89 | 9.0 | 9.0 | 0.00 | 0.00 | 0.00 | 99 | 1026.6 |
| 20260905134950 | 66 | 118 | 8.0 | 10.0 | 0.00 | 0.00 | 0.00 | 99 | 1026.6 |
| 20260905134449 | 66 | 118 | 8.0 | 10.0 | 0.00 | 0.00 | 0.00 | 99 | 1026.6 |
| 20260905133949 | 66 | 125 | 9.0 | 10.0 | 0.00 | 0.00 | 0.00 | 99 | 1026.6 |
| 20260905133444 | 66 | 125 | 9.0 | 10.0 | 0.00 | 0.00 | 0.00 | 99 | 1026.6 |
| 20260905132943 | 65 | 122 | 8.0 | 9.0 | 0.00 | 0.00 | 0.00 | 99 | 1026.5 |
| 20260905132438 | 65 | 122 | 8.0 | 9.0 | 0.00 | 0.00 | 0.00 | 99 | 1026.5 |
| 20260905131933 | 65 | 122 | 11.0 | 13.0 | 0.00 | 0.00 | 0.00 | 99 | 1026.1 |
| 20260905131429 | 65 | 122 | 11.0 | 13.0 | 0.00 | 0.00 | 0.00 | 99 | 1026.1 |
| 20260905130924 | 65 | 109 | 12.0 | 14.0 | 0.00 | 0.00 | 0.00 | 99 | 1026.2 |
| 20260905130423 | 65 | 109 | 12.0 | 14.0 | 0.00 | 0.00 | 0.00 | 99 | 1026.2 |
| 20260905125923 | 65 | 123 | 12.0 | 15.0 | 0.00 | 0.00 | 0.00 | 99 | 1026.2 |
| 20260905125418 | 65 | 123 | 12.0 | 15.0 | 0.00 | 0.00 | 0.00 | 99 | 1026.2 |
| 20260905124913 | 64 | 140 | 12.0 | 13.0 | 0.00 | 0.00 | 0.00 | 99 | 1026.1 |
| 20260905124410 | 64 | 140 | 12.0 | 13.0 | 0.00 | 0.00 | 0.00 | 99 | 1026.1 |
| 20260905123910 | 64 | 141 | 10.0 | 13.0 | 0.00 | 0.00 | 0.00 | 99 | 1026.1 |
| 20260905123407 | 64 | 141 | 10.0 | 13.0 | 0.00 | 0.00 | 0.00 | 99 | 1026.1 |
| 20260905122902 | 64 | 107 | 10.0 | 11.0 | 0.00 | 0.00 | 0.00 | 99 | 1026.0 |
| 20260905122401 | 64 | 107 | 10.0 | 11.0 | 0.00 | 0.00 | 0.00 | 99 | 1026.0 |
| 20260905121856 | 64 | 101 | 8.0 | 11.0 | 0.00 | 0.00 | 0.00 | 99 | 1025.8 |
| 20260905121352 | 64 | 101 | 8.0 | 11.0 | 0.00 | 0.00 | 0.00 | 99 | 1025.8 |
| 20260905120851 | 64 | 136 | 10.0 | 13.0 | 0.00 | 0.00 | 0.00 | 99 | 1026.0 |
| 20260905120346 | 64 | 136 | 10.0 | 13.0 | 0.00 | 0.00 | 0.00 | 99 | 1026.0 |
| 20260905115841 | 64 | 143 | 11.0 | 11.0 | 0.00 | 0.00 | 0.00 | 99 | 1026.0 |
| 20260905115340 | 64 | 143 | 11.0 | 11.0 | 0.00 | 0.00 | 0.00 | 99 | 1026.0 |
| 20260905114835 | 64 | 139 | 11.0 | 13.0 | 0.00 | 0.00 | 0.00 | 99 | 1025.7 |
| 20260905114334 | 64 | 139 | 11.0 | 13.0 | 0.00 | 0.00 | 0.00 | 99 | 1025.7 |
| 20260905113833 | 65 | 136 | 12.0 | 14.0 | 0.00 | 0.00 | 0.00 | 99 | 1026.0 |
| 20260905113329 | 65 | 136 | 12.0 | 14.0 | 0.00 | 0.00 | 0.00 | 99 | 1026.0 |
| 20260905112825 | 65 | 113 | 11.0 | 13.0 | 0.00 | 0.00 | 0.00 | 99 | 1026.0 |
| 20260905112319 | 65 | 113 | 11.0 | 13.0 | 0.00 | 0.00 | 0.00 | 99 | 1026.0 |
| 20260905111815 | 65 | 127 | 13.0 | 15.0 | 0.00 | 0.00 | 0.00 | 99 | 1026.0 |
| 20260905111315 | 65 | 127 | 13.0 | 15.0 | 0.00 | 0.00 | 0.00 | 99 | 1026.0 |
| 20260905110814 | 65 | 160 | 12.0 | 14.0 | 0.00 | 0.00 | 0.00 | 99 | 1026.0 |
| 20260905110308 | 65 | 160 | 12.0 | 14.0 | 0.00 | 0.00 | 0.00 | 99 | 1026.0 |
| 20260905105804 | 65 | 177 | 13.0 | 15.0 | 0.00 | 0.00 | 0.00 | 99 | 1025.8 |
| 20260905105306 | 65 | 177 | 13.0 | 15.0 | 0.00 | 0.00 | 0.00 | 99 | 1025.8 |
| 20260905104757 | 64 | 159 | 14.0 | 16.0 | 0.00 | 0.00 | 0.00 | 99 | 1025.7 |
| 20260905104254 | 64 | 159 | 14.0 | 16.0 | 0.00 | 0.00 | 0.00 | 99 | 1025.7 |
| 20260905103753 | 64 | 125 | 9.0 | 11.0 | 0.00 | 0.00 | 0.00 | 99 | 1025.7 |
| 20260905103249 | 64 | 125 | 9.0 | 11.0 | 0.00 | 0.00 | 0.00 | 99 | 1025.7 |
| 20260905102744 | 65 | 149 | 12.0 | 15.0 | 0.00 | 0.00 | 0.00 | 99 | 1025.7 |
| 20260905102241 | 65 | 149 | 12.0 | 15.0 | 0.00 | 0.00 | 0.00 | 99 | 1025.7 |
| 20260905101740 | 64 | 165 | 12.0 | 14.0 | 0.00 | 0.00 | 0.00 | 99 | 1025.5 |
| 20260905101238 | 64 | 165 | 12.0 | 14.0 | 0.00 | 0.00 | 0.00 | 99 | 1025.5 |
| 20260905100734 | 64 | 130 | 10.0 | 11.0 | 0.00 | 0.00 | 0.00 | 99 | 1025.6 |
| 20260905100229 | 64 | 130 | 10.0 | 11.0 | 0.00 | 0.00 | 0.00 | 99 | 1025.6 |
| 20260905095724 | 64 | 123 | 10.0 | 13.0 | 0.00 | 0.00 | 0.00 | 99 | 1025.6 |
| 20260905095223 | 64 | 123 | 10.0 | 13.0 | 0.00 | 0.00 | 0.00 | 99 | 1025.6 |
| 20260905094719 | 64 | 111 | 12.0 | 15.0 | 0.00 | 0.00 | 0.00 | 99 | 1025.6 |
| 20260905094219 | 64 | 111 | 12.0 | 15.0 | 0.00 | 0.00 | 0.00 | 99 | 1025.6 |
| 20260905093713 | 64 | 124 | 12.0 | 15.0 | 0.00 | 0.00 | 0.00 | 99 | 1025.3 |
| 20260905093209 | 64 | 124 | 12.0 | 15.0 | 0.00 | 0.00 | 0.00 | 99 | 1025.3 |
| 20260905092704 | 63 | 158 | 8.0 | 10.0 | 0.00 | 0.00 | 0.00 | 99 | 1025.6 |
| 20260905092159 | 63 | 158 | 8.0 | 10.0 | 0.00 | 0.00 | 0.00 | 99 | 1025.6 |
| 20260905091654 | 63 | 140 | 8.0 | 9.0 | 0.00 | 0.00 | 0.00 | 99 | 1025.3 |
| 20260905091153 | 63 | 140 | 8.0 | 9.0 | 0.00 | 0.00 | 0.00 | 99 | 1025.3 |
| 20260905090648 | 63 | 137 | 13.0 | 14.0 | 0.00 | 0.00 | 0.00 | 99 | 1025.3 |
| 20260905090144 | 63 | 137 | 13.0 | 14.0 | 0.00 | 0.00 | 0.00 | 99 | 1025.3 |
| 20260905085642 | 64 | 115 | 11.0 | 13.0 | 0.00 | 0.00 | 0.00 | 99 | 1025.3 |
| 20260905085137 | 64 | 115 | 11.0 | 13.0 | 0.00 | 0.00 | 0.00 | 99 | 1025.3 |
| 20260905084636 | 63 | 124 | 8.0 | 9.0 | 0.00 | 0.00 | 0.00 | 99 | 1025.3 |
| 20260905084132 | 63 | 124 | 8.0 | 9.0 | 0.00 | 0.00 | 0.00 | 99 | 1025.3 |
| 20260905083626 | 64 | 135 | 11.0 | 11.0 | 0.00 | 0.00 | 0.00 | 99 | 1025.3 |
| 20260905083123 | 64 | 135 | 11.0 | 11.0 | 0.00 | 0.00 | 0.00 | 99 | 1025.3 |
| 20260905082618 | 64 | 116 | 11.0 | 14.0 | 0.00 | 0.00 | 0.00 | 99 | 1025.5 |
| 20260905082114 | 64 | 116 | 11.0 | 14.0 | 0.00 | 0.00 | 0.00 | 99 | 1025.5 |
| 20260905081613 | 63 | 156 | 12.0 | 14.0 | 0.00 | 0.00 | 0.00 | 99 | 1025.3 |
| 20260905081108 | 63 | 156 | 12.0 | 14.0 | 0.00 | 0.00 | 0.00 | 99 | 1025.3 |
| 20260905080603 | 63 | 123 | 7.0 | 7.0 | 0.00 | 0.00 | 0.00 | 99 | 1025.3 |
| 20260905080057 | 63 | 123 | 7.0 | 7.0 | 0.00 | 0.00 | 0.00 | 99 | 1025.3 |
| 20260905075550 | 63 | 139 | 11.0 | 14.0 | 0.00 | 0.00 | 0.00 | 99 | 1025.6 |
| 20260905075045 | 63 | 139 | 11.0 | 14.0 | 0.00 | 0.00 | 0.00 | 99 | 1025.6 |
| 20260905074544 | 64 | 158 | 11.0 | 13.0 | 0.00 | 0.00 | 0.00 | 99 | 1025.6 |
| 20260905074040 | 64 | 158 | 11.0 | 13.0 | 0.00 | 0.00 | 0.00 | 99 | 1025.6 |
| 20260905073535 | 64 | 145 | 11.0 | 13.0 | 0.00 | 0.00 | 0.00 | 99 | 1025.5 |
| 20260905073031 | 64 | 145 | 11.0 | 13.0 | 0.00 | 0.00 | 0.00 | 99 | 1025.5 |
| 20260905072530 | 64 | 136 | 8.0 | 10.0 | 0.00 | 0.00 | 0.00 | 99 | 1025.6 |
| 20260905072026 | 64 | 136 | 8.0 | 10.0 | 0.00 | 0.00 | 0.00 | 99 | 1025.6 |
| 20260905071523 | 65 | 133 | 10.0 | 10.0 | 0.00 | 0.00 | 0.00 | 99 | 1025.5 |
| 20260905071023 | 65 | 133 | 10.0 | 10.0 | 0.00 | 0.00 | 0.00 | 99 | 1025.5 |
| 20260905070518 | 66 | 98 | 10.0 | 11.0 | 0.00 | 0.00 | 0.00 | 99 | 1025.6 |
| 20260905070014 | 66 | 98 | 10.0 | 11.0 | 0.00 | 0.00 | 0.00 | 99 | 1025.6 |
| 20260905065511 | 66 | 137 | 10.0 | 10.0 | 0.00 | 0.00 | 0.00 | 99 | 1025.5 |
| 20260905065007 | 66 | 137 | 10.0 | 10.0 | 0.00 | 0.00 | 0.00 | 99 | 1025.5 |
| 20260905064502 | 66 | 123 | 8.0 | 9.0 | 0.00 | 0.00 | 0.00 | 99 | 1025.5 |
| 20260905063956 | 66 | 123 | 8.0 | 9.0 | 0.00 | 0.00 | 0.00 | 99 | 1025.5 |
| 20260905063450 | 68 | 105 | 5.0 | 6.0 | 0.00 | 0.00 | 0.00 | 99 | 1025.5 |
| 20260905062947 | 69 | 98 | 6.0 | 7.0 | 0.00 | 0.00 | 0.00 | 99 | 1025.7 |
| 20260905062447 | 69 | 98 | 6.0 | 7.0 | 0.00 | 0.00 | 0.00 | 99 | 1025.7 |
| 20260905061942 | 71 | 86 | 2.0 | 2.0 | 0.00 | 0.00 | 0.00 | 99 | 1025.6 |
| 20260905061442 | 71 | 86 | 2.0 | 2.0 | 0.00 | 0.00 | 0.00 | 99 | 1025.6 |
| 20260905060936 | 71 | 87 | 4.0 | 4.0 | 0.00 | 0.00 | 0.00 | 99 | 1025.5 |
| 20260905060432 | 71 | 87 | 4.0 | 4.0 | 0.00 | 0.00 | 0.00 | 99 | 1025.5 |
| 20260905055931 | 71 | 143 | 0.0 | 1.0 | 0.00 | 0.00 | 0.00 | 99 | 1025.7 |
| 20260905055426 | 71 | 143 | 0.0 | 1.0 | 0.00 | 0.00 | 0.00 | 99 | 1025.7 |
| 20260905054925 | 71 | 65 | 5.0 | 6.0 | 0.00 | 0.00 | 0.00 | 99 | 1025.6 |
| 20260905054422 | 71 | 65 | 5.0 | 6.0 | 0.00 | 0.00 | 0.00 | 99 | 1025.6 |
| 20260905053921 | 71 | 114 | 2.0 | 2.0 | 0.00 | 0.00 | 0.00 | 99 | 1025.7 |
| 20260905053416 | 71 | 114 | 2.0 | 2.0 | 0.00 | 0.00 | 0.00 | 99 | 1025.7 |
| 20260905052912 | 69 | 145 | 0.0 | 0.0 | 0.00 | 0.00 | 0.00 | 99 | 1025.8 |
| 20260905052411 | 69 | 145 | 0.0 | 0.0 | 0.00 | 0.00 | 0.00 | 99 | 1025.8 |
| 20260905051911 | 70 | 117 | 0.0 | 0.0 | 0.00 | 0.00 | 0.00 | 99 | 1026.0 |
| 20260905051407 | 70 | 117 | 0.0 | 0.0 | 0.00 | 0.00 | 0.00 | 99 | 1026.0 |
| 20260905050904 | 71 | 126 | 0.0 | 0.0 | 0.00 | 0.00 | 0.00 | 99 | 1025.8 |
| 20260905050400 | 71 | 126 | 0.0 | 0.0 | 0.00 | 0.00 | 0.00 | 99 | 1025.8 |
| 20260905045855 | 72 | 193 | 1.0 | 1.0 | 0.00 | 0.00 | 0.00 | 99 | 1025.8 |
| 20260905045350 | 72 | 193 | 1.0 | 1.0 | 0.00 | 0.00 | 0.00 | 99 | 1025.8 |
| 20260905044845 | 72 | 93 | 2.0 | 3.0 | 0.00 | 0.00 | 0.00 | 99 | 1026.0 |
| 20260905044340 | 72 | 93 | 2.0 | 3.0 | 0.00 | 0.00 | 0.00 | 99 | 1026.0 |
| 20260905043839 | 71 | 172 | 1.0 | 1.0 | 0.00 | 0.00 | 0.00 | 99 | 1026.0 |
| 20260905043334 | 71 | 172 | 1.0 | 1.0 | 0.00 | 0.00 | 0.00 | 99 | 1026.0 |
| 20260905042829 | 71 | 158 | 0.0 | 1.0 | 0.00 | 0.00 | 0.00 | 99 | 1025.8 |
| 20260905042328 | 71 | 158 | 0.0 | 1.0 | 0.00 | 0.00 | 0.00 | 99 | 1025.8 |
| 20260905041823 | 72 | 131 | 0.0 | 0.0 | 0.00 | 0.00 | 0.00 | 99 | 1026.2 |
| 20260905041319 | 72 | 131 | 0.0 | 0.0 | 0.00 | 0.00 | 0.00 | 99 | 1026.2 |
| 20260905040814 | 73 | 114 | 2.0 | 2.0 | 0.00 | 0.00 | 0.00 | 99 | 1026.0 |
| 20260905040307 | 73 | 114 | 2.0 | 2.0 | 0.00 | 0.00 | 0.00 | 99 | 1026.0 |
| 20260905035802 | 73 | 117 | 1.0 | 2.0 | 0.00 | 0.00 | 0.00 | 99 | 1026.2 |
| 20260905035258 | 73 | 117 | 1.0 | 2.0 | 0.00 | 0.00 | 0.00 | 99 | 1026.2 |
| 20260905034755 | 72 | 116 | 3.0 | 3.0 | 0.00 | 0.00 | 0.00 | 99 | 1026.1 |
| 20260905034255 | 72 | 116 | 3.0 | 3.0 | 0.00 | 0.00 | 0.00 | 99 | 1026.1 |
| 20260905033753 | 73 | 13 | 2.0 | 2.0 | 0.00 | 0.00 | 0.00 | 99 | 1026.0 |
| 20260905033249 | 73 | 13 | 2.0 | 2.0 | 0.00 | 0.00 | 0.00 | 99 | 1026.0 |
| 20260905032748 | 73 | 311 | 6.0 | 7.0 | 0.00 | 0.00 | 0.00 | 99 | 1026.0 |
| 20260905032244 | 73 | 311 | 6.0 | 7.0 | 0.00 | 0.00 | 0.00 | 99 | 1026.0 |
| 20260905031738 | 73 | 313 | 4.0 | 6.0 | 0.00 | 0.00 | 0.00 | 99 | 1026.1 |
| 20260905031235 | 73 | 313 | 4.0 | 6.0 | 0.00 | 0.00 | 0.00 | 99 | 1026.1 |
| 20260905030734 | 73 | 170 | 3.0 | 4.0 | 0.00 | 0.00 | 0.00 | 99 | 1026.1 |
| 20260905030230 | 73 | 170 | 3.0 | 4.0 | 0.00 | 0.00 | 0.00 | 99 | 1026.1 |
| 20260905025724 | 73 | 0 | 5.0 | 6.0 | 0.00 | 0.00 | 0.00 | 99 | 1026.0 |
| 20260905025220 | 73 | 0 | 5.0 | 6.0 | 0.00 | 0.00 | 0.00 | 99 | 1026.0 |
| 20260905024715 | 73 | 312 | 4.0 | 4.0 | 0.00 | 0.00 | 0.00 | 99 | 1025.7 |
| 20260905024211 | 73 | 312 | 4.0 | 4.0 | 0.00 | 0.00 | 0.00 | 99 | 1025.7 |
| 20260905023706 | 73 | 359 | 2.0 | 2.0 | 0.00 | 0.00 | 0.00 | 99 | 1025.6 |
| 20260905023206 | 73 | 359 | 2.0 | 2.0 | 0.00 | 0.00 | 0.00 | 99 | 1025.6 |
| 20260905022705 | 74 | 348 | 4.0 | 4.0 | 0.00 | 0.00 | 0.00 | 99 | 1025.2 |
| 20260905022201 | 74 | 348 | 4.0 | 4.0 | 0.00 | 0.00 | 0.00 | 99 | 1025.2 |
| 20260905021655 | 74 | 344 | 4.0 | 4.0 | 0.00 | 0.00 | 0.00 | 99 | 1025.2 |
| 20260905021150 | 74 | 344 | 4.0 | 4.0 | 0.00 | 0.00 | 0.00 | 99 | 1025.2 |
| 20260905020645 | 74 | 340 | 4.0 | 4.0 | 0.00 | 0.00 | 0.00 | 99 | 1025.2 |
| 20260905020141 | 74 | 340 | 4.0 | 4.0 | 0.00 | 0.00 | 0.00 | 99 | 1025.2 |
| 20260905015639 | 74 | 304 | 6.0 | 7.0 | 0.00 | 0.00 | 0.00 | 99 | 1024.8 |
| 20260905015133 | 74 | 304 | 6.0 | 7.0 | 0.00 | 0.00 | 0.00 | 99 | 1024.8 |
| 20260905014627 | 74 | 270 | 4.0 | 6.0 | 0.00 | 0.00 | 0.00 | 99 | 1025.0 |
| 20260905014123 | 74 | 270 | 4.0 | 6.0 | 0.00 | 0.00 | 0.00 | 99 | 1025.0 |
| 20260905013620 | 75 | 240 | 6.0 | 7.0 | 0.00 | 0.00 | 0.00 | 99 | 1024.8 |
| 20260905013115 | 75 | 240 | 6.0 | 7.0 | 0.00 | 0.00 | 0.00 | 99 | 1024.8 |
| 20260905012614 | 75 | 281 | 8.0 | 9.0 | 0.00 | 0.00 | 0.00 | 99 | 1024.7 |
| 20260905012111 | 75 | 281 | 8.0 | 9.0 | 0.00 | 0.00 | 0.00 | 99 | 1024.7 |
| 20260905011607 | 75 | 316 | 13.0 | 14.0 | 0.00 | 0.00 | 0.00 | 99 | 1024.7 |
| 20260905011102 | 75 | 316 | 13.0 | 14.0 | 0.00 | 0.00 | 0.00 | 99 | 1024.7 |
| 20260905010556 | 75 | 316 | 13.0 | 15.0 | 0.00 | 0.00 | 0.00 | 99 | 1024.6 |
| 20260905010053 | 75 | 316 | 13.0 | 15.0 | 0.00 | 0.00 | 0.00 | 99 | 1024.6 |
| 20260905005548 | 75 | 314 | 11.0 | 11.0 | 0.00 | 0.00 | 0.00 | 99 | 1024.6 |
| 20260905005043 | 75 | 314 | 11.0 | 11.0 | 0.00 | 0.00 | 0.00 | 99 | 1024.6 |
| 20260905004538 | 75 | 338 | 10.0 | 11.0 | 0.00 | 0.00 | 0.00 | 99 | 1024.6 |
| 20260905004034 | 75 | 338 | 10.0 | 11.0 | 0.00 | 0.00 | 0.00 | 99 | 1024.6 |
| 20260905003529 | 75 | 292 | 10.0 | 11.0 | 0.00 | 0.00 | 0.00 | 99 | 1024.5 |
| 20260905003025 | 75 | 292 | 10.0 | 11.0 | 0.00 | 0.00 | 0.00 | 99 | 1024.5 |
| 20260905002520 | 76 | 273 | 11.0 | 13.0 | 0.00 | 0.00 | 0.00 | 99 | 1024.2 |
| 20260905002020 | 76 | 273 | 11.0 | 13.0 | 0.00 | 0.00 | 0.00 | 99 | 1024.2 |
| 20260905001514 | 77 | 273 | 5.0 | 7.0 | 0.00 | 0.00 | 0.00 | 99 | 1024.5 |
| 20260905001008 | 77 | 273 | 5.0 | 7.0 | 0.00 | 0.00 | 0.00 | 99 | 1024.5 |
| 20260905000504 | 76 | 321 | 9.0 | 10.0 | 0.00 | 0.00 | 0.00 | 99 | 1024.3 |
| 20260905000000 | 76 | 321 | 9.0 | 10.0 | 0.00 | 0.00 | 0.00 | 99 | 1024.3 |
| 20260904235455 | 76 | 285 | 6.0 | 7.0 | 0.00 | 0.00 | 0.00 | 99 | 1024.3 |
| 20260904234949 | 76 | 285 | 6.0 | 7.0 | 0.00 | 0.00 | 0.00 | 99 | 1024.3 |
| 20260904234443 | 76 | 252 | 5.0 | 7.0 | 0.00 | 0.00 | 0.00 | 99 | 1024.6 |
| 20260904233940 | 76 | 252 | 5.0 | 7.0 | 0.00 | 0.00 | 0.00 | 99 | 1024.6 |
| 20260904233434 | 77 | 258 | 5.0 | 7.0 | 0.00 | 0.00 | 0.00 | 99 | 1024.3 |
| 20260904232931 | 77 | 258 | 5.0 | 7.0 | 0.00 | 0.00 | 0.00 | 99 | 1024.3 |
| 20260904232427 | 76 | 352 | 9.0 | 13.0 | 0.00 | 0.00 | 0.00 | 99 | 1024.2 |
| 20260904231924 | 76 | 352 | 9.0 | 13.0 | 0.00 | 0.00 | 0.00 | 99 | 1024.2 |
| 20260904231423 | 77 | 323 | 10.0 | 14.0 | 0.00 | 0.00 | 0.00 | 99 | 1024.2 |
| 20260904230919 | 77 | 323 | 10.0 | 14.0 | 0.00 | 0.00 | 0.00 | 99 | 1024.2 |